Vertical_Velocity
3 3 -11 36 19 17 6 0 9 12 17 -5 1 4 29 3 1 0 -1 3 4 4 2 4 3 6 4 2 1 3 3 2 2 3 3 4 4 1 1 1 3 3 3 2
1 7 -5 1 -3 1 3 2 3 -3 15 -3 2 8 16 6 -1 4 5 4 3 4 0 1 0 3 5 4 3 0 2 1 2 2 3 2 -1 2 1 -2 1 2 1 1
3 3 0 3 2 1 2 -6 2 8 14 3 11 1 0 -4 -8 2 -1 2 -3 4 2 2 1 0 5 4 5 2 3 5 3 1 3 0 2 -2 -0 4 2 1 1 2
1 1 4 0 6 4 14 7 5 11 0 -5 10 -9 1 4 1 1 4 3 1 1 -0 -0 1 -1 3 3 3 3 0 5 2 1 2 -1 3 2 1 -1 -3 0 2 2
-4 5 4 2 3 -0 -4 5 5 7 2 6 -4 6 3 14 -2 -6 3 1 2 4 2 1 1 1 3 2 3 3 -1 -5 5 1 2 -1 3 1 -0 0 -0 1 1 1
-0 -0 1 7 9 5 4 12 14 7 9 -13 -5 -5 9 0 -3 6 -2 1 1 0 2 5 2 5 3 3 2 3 2 -2 -1 1 1 1 3 -0 -1 1 1 -1 -2 -2
-2 -0 0 4 9 4 4 12 5 17 2 -23 -5 9 3 5 10 8 1 5 2 3 2 5 3 4 -0 -0 3 2 3 4 4 2 1 1 2 -0 -0 -1 -2 -0 1 1
-1 -1 1 -1 0 8 3 10 2 1 -5 -18 9 -11 -4 -8 7 5 6 -4 3 4 4 3 4 3 1 3 2 5 3 2 3 1 -0 2 2 2 2 2 0 1 4 1
-1 -0 1 -3 2 8 18 12 5 -3 -0 25 6 -24 10 1 4 4 -0 -0 -0 -1 0 2 2 2 2 1 2 1 3 2 1 1 1 2 2 2 1 1 1 2 1 -1
-2 2 1 2 -3 3 7 12 14 2 -1 20 -9 -4 -11 -2 0 2 5 5 2 2 -1 -3 2 3 1 2 2 3 3 4 3 2 1 1 1 1 -1 -1 0 1 -0 0
-2 -0 1 2 -6 1 3 -1 9 9 4 -11 14 -11 -5 -2 -3 2 5 4 1 0 4 4 2 3 5 5 7 3 2 3 4 3 2 2 2 1 2 2 0 1 -0 1
-0 0 1 1 -1 -6 3 -1 5 11 12 -1 14 6 -7 -1 0 -2 0 3 2 3 2 3 4 2 2 1 3 4 3 3 3 2 3 3 3 3 2 1 1 2 1 1
-1 -1 0 1 3 -4 -3 2 1 6 8 4 9 4 3 2 -3 -3 -3 1 3 4 4 3 5 4 5 3 4 4 4 4 4 4 1 2 3 2 1 1 1 2 3 -2
0 -1 -0 -0 2 -2 -1 3 4 4 10 10 -4 2 3 15 5 6 -0 -0 2 2 4 1 4 3 3 6 -0 2 3 4 2 3 3 2 1 2 1 2 1 2 3 0
-1 -1 -0 -1 0 1 2 -1 4 0 -1 0 3 -0 1 3 11 8 4 5 2 3 5 2 3 1 3 3 4 1 -1 5 4 3 2 2 2 -0 -0 0 2 1 1 -0
-1 -1 -0 0 -2 -1 1 0 -4 6 -5 0 -2 8 6 0 -0 6 9 6 3 4 3 3 2 2 3 3 4 3 3 -2 5 4 3 2 1 2 2 2 1 -0 0 -1
-2 -1 -1 -1 -0 0 0 1 2 -2 2 -0 -1 -2 6 4 3 -1 1 5 4 1 2 2 3 2 0 1 2 1 3 5 2 -1 2 4 3 2 2 1 1 0 -1 -2
-2 -2 -2 -2 -1 -2 -0 -1 -0 4 2 7 0 -2 -5 2 9 1 3 1 2 4 4 5 5 6 3 2 3 -1 0 1 3 3 1 1 -2 0 1 2 -0 1 -2 -1
-1 -1 -2 -1 -2 -1 -1 -1 -1 -3 -0 0 -3 2 -1 -6 -2 3 4 4 1 -2 3 1 2 2 2 4 4 1 2 1 0 1 3 3 -0 -2 -0 -2 -4 -3 -4 -1
-1 -2 -1 -2 -0 -1 -1 -3 -0 1 1 -2 -0 -4 -2 1 -3 -2 2 4 2 0 5 3 0 2 1 2 3 2 5 3 0 0 -1 -1 -2 -0 0 -1 -2 -5 1 -5
1 0 -1 -1 -1 1 -1 -1 -2 -2 2 4 0 -1 5 -0 -3 -3 -5 -2 6 4 3 5 4 2 2 3 -2 -1 -1 2 1 2 3 3 1 0 0 1 -0 -3 -1 -4
-0 0 -0 -1 -1 -0 -0 -1 -1 -1 -2 -1 1 1 1 1 2 -4 -3 -3 -4 1 2 1 2 2 1 0 -2 1 2 -2 -1 1 3 4 5 2 -0 0 -1 -3 -1 1
1 -1 -0 -1 -0 -1 -1 -1 -1 -2 -1 -2 -2 2 2 2 0 1 1 -3 -3 -3 1 -2 5 2 2 -1 1 2 2 1 -2 -3 -2 -2 -1 0 0 -0 -3 -3 -2 -2
1 1 -1 1 1 -0 -1 -1 -1 -1 -1 -1 -1 -2 0 2 2 3 -1 2 -0 -5 -1 -5 -2 2 -0 2 1 -1 -1 -2 -0 0 1 4 -2 -1 4 -2 -1 -1 -1 -1
1 0 1 -0 -0 -0 -1 0 0 -1 -1 -1 -1 -2 -2 -2 0 0 1 1 -0 2 -1 -4 -5 -4 -3 0 2 1 1 0 2 1 -1 -4 -3 -3 -3 1 0 1 -2 -3
1 1 1 0 0 -1 -2 -1 1 1 -0 -1 -2 -0 -0 -2 -3 -4 -3 -0 -0 -1 -1 -1 -2 -1 -2 -3 -2 -1 -3 2 -1 2 3 -0 -1 -2 -2 0 -1 -1 -2 -3
Height
5515 5525 5534 5553 5557 5575 5579 5591 5600 5613 5631 5637 5650 5658 5670 5673 5682 5693 5703 5713 5721 5729 5736 5744 5751 5757 5762 5771 5779 5787 5793 5799 5804 5808 5812 5817 5822 5826 5830 5834 5838 5842 5846 5850
5500 5504 5509 5521 5537 5549 5557 5570 5581 5594 5613 5624 5634 5644 5651 5659 5668 5679 5689 5700 5711 5719 5727 5734 5742 5747 5755 5763 5771 5779 5785 5792 5798 5802 5807 5812 5817 5821 5825 5829 5834 5838 5842 5847
5480 5484 5492 5503 5517 5528 5539 5550 5565 5578 5592 5608 5619 5624 5634 5647 5657 5667 5677 5688 5698 5707 5716 5724 5731 5738 5746 5754 5762 5770 5777 5785 5790 5795 5801 5806 5811 5815 5820 5826 5830 5835 5839 5843
5463 5467 5474 5484 5499 5509 5524 5538 5549 5560 5570 5592 5601 5610 5617 5635 5645 5654 5664 5674 5685 5695 5704 5712 5720 5729 5737 5745 5754 5760 5769 5776 5783 5788 5794 5799 5805 5811 5815 5820 5824 5829 5833 5838
5449 5452 5458 5469 5479 5489 5507 5525 5539 5547 5554 5570 5583 5593 5604 5621 5630 5641 5652 5661 5672 5682 5692 5702 5710 5717 5727 5736 5744 5752 5758 5766 5774 5780 5786 5792 5798 5803 5808 5813 5817 5822 5827 5831
5439 5438 5444 5454 5464 5476 5492 5510 5525 5533 5541 5544 5567 5582 5590 5605 5620 5628 5640 5650 5660 5670 5681 5691 5699 5706 5716 5725 5734 5741 5750 5757 5765 5771 5777 5783 5789 5794 5800 5805 5810 5815 5820 5825
5431 5431 5433 5442 5453 5466 5477 5493 5506 5516 5521 5529 5551 5562 5575 5589 5606 5617 5627 5638 5648 5659 5668 5679 5688 5696 5705 5714 5723 5731 5739 5747 5754 5761 5768 5774 5780 5786 5791 5797 5802 5808 5812 5817
5426 5427 5427 5432 5444 5458 5467 5476 5482 5494 5509 5520 5538 5540 5556 5571 5589 5603 5614 5625 5636 5647 5656 5666 5677 5686 5694 5703 5711 5720 5728 5736 5743 5751 5758 5764 5771 5777 5782 5788 5793 5799 5804 5808
5423 5422 5423 5426 5435 5449 5456 5464 5473 5488 5504 5512 5517 5530 5545 5557 5574 5588 5600 5611 5622 5633 5645 5655 5665 5674 5684 5693 5701 5709 5717 5725 5733 5740 5748 5754 5761 5767 5773 5778 5784 5789 5794 5799
5420 5420 5421 5423 5429 5437 5446 5457 5468 5474 5488 5501 5504 5517 5529 5544 5558 5574 5586 5597 5609 5620 5631 5642 5652 5662 5671 5681 5690 5698 5706 5714 5722 5729 5737 5744 5750 5757 5762 5768 5774 5779 5784 5789
5418 5418 5420 5421 5424 5429 5438 5446 5457 5467 5478 5490 5496 5502 5518 5532 5544 5559 5572 5585 5596 5606 5616 5627 5638 5648 5658 5667 5676 5686 5694 5702 5709 5717 5725 5732 5738 5745 5751 5757 5762 5768 5773 5779
5418 5416 5417 5420 5422 5426 5430 5438 5447 5457 5468 5477 5486 5492 5505 5520 5532 5544 5558 5571 5583 5593 5603 5614 5624 5634 5644 5654 5664 5673 5681 5690 5698 5705 5712 5719 5726 5733 5739 5745 5751 5757 5762 5768
5417 5415 5416 5418 5421 5423 5426 5431 5441 5450 5457 5467 5479 5486 5497 5507 5518 5530 5543 5556 5568 5579 5590 5599 5610 5620 5629 5639 5648 5658 5668 5676 5685 5692 5699 5706 5713 5719 5726 5733 5739 5745 5751 5755
5417 5415 5415 5417 5419 5420 5423 5426 5433 5443 5451 5459 5466 5478 5488 5499 5507 5516 5527 5541 5552 5564 5575 5585 5595 5605 5615 5624 5634 5644 5653 5662 5671 5679 5686 5693 5700 5707 5713 5720 5726 5732 5738 5744
5417 5415 5414 5415 5416 5418 5420 5423 5427 5434 5442 5451 5461 5468 5477 5487 5497 5506 5515 5526 5538 5550 5560 5570 5581 5591 5600 5610 5619 5628 5639 5648 5656 5664 5671 5679 5686 5693 5700 5707 5713 5720 5726 5731
5417 5415 5413 5413 5414 5416 5418 5420 5423 5427 5435 5443 5452 5458 5468 5477 5485 5493 5504 5513 5524 5534 5545 5556 5567 5575 5585 5594 5604 5614 5623 5632 5641 5649 5656 5664 5671 5678 5685 5692 5699 5706 5712 5718
5417 5415 5413 5412 5412 5413 5416 5418 5420 5422 5425 5436 5443 5451 5455 5466 5475 5483 5492 5501 5511 5520 5530 5539 5550 5561 5571 5580 5589 5598 5608 5616 5624 5633 5641 5648 5656 5663 5670 5677 5684 5691 5697 5703
5417 5414 5412 5411 5410 5412 5412 5413 5416 5420 5425 5428 5435 5442 5450 5456 5463 5471 5479 5487 5496 5506 5516 5525 5534 5544 5554 5564 5574 5583 5592 5600 5609 5617 5624 5632 5640 5647 5655 5662 5669 5676 5682 5688
5416 5414 5411 5410 5408 5409 5409 5411 5412 5414 5418 5423 5429 5433 5441 5448 5454 5462 5469 5476 5484 5493 5501 5511 5520 5528 5538 5547 5557 5567 5576 5584 5593 5601 5609 5617 5624 5632 5639 5646 5652 5659 5665 5671
5415 5413 5411 5408 5406 5406 5406 5408 5410 5411 5414 5417 5422 5428 5433 5438 5444 5452 5460 5467 5473 5480 5487 5497 5506 5514 5523 5531 5540 5549 5558 5567 5576 5584 5593 5601 5608 5615 5622 5628 5635 5642 5649 5654
5413 5411 5409 5407 5405 5404 5404 5404 5407 5410 5415 5414 5418 5422 5425 5430 5435 5441 5448 5456 5463 5470 5476 5483 5491 5498 5507 5516 5523 5532 5541 5550 5558 5566 5575 5582 5590 5597 5604 5611 5617 5623 5630 5635
5411 5408 5406 5405 5404 5404 5401 5401 5404 5406 5407 5409 5411 5414 5417 5421 5427 5433 5438 5444 5452 5458 5465 5471 5477 5484 5492 5500 5507 5516 5525 5533 5541 5548 5556 5564 5572 5578 5585 5592 5598 5604 5611 5617
5409 5406 5404 5403 5401 5400 5399 5399 5399 5400 5402 5404 5406 5408 5411 5414 5418 5423 5429 5435 5440 5446 5452 5459 5466 5470 5478 5485 5492 5500 5508 5516 5523 5531 5539 5546 5553 5561 5567 5573 5579 5586 5592 5598
5404 5401 5398 5398 5396 5395 5395 5395 5395 5395 5396 5397 5400 5403 5405 5408 5411 5414 5418 5423 5429 5434 5440 5445 5452 5457 5464 5470 5477 5484 5492 5499 5506 5514 5521 5529 5536 5542 5549 5555 5561 5566 5573 5579
5401 5396 5393 5391 5389 5389 5389 5390 5390 5390 5391 5392 5393 5395 5398 5401 5404 5407 5410 5413 5418 5422 5427 5432 5438 5444 5451 5456 5462 5469 5476 5482 5490 5497 5504 5511 5518 5524 5531 5537 5543 5548 5554 5560
5396 5392 5389 5386 5383 5381 5381 5382 5384 5384 5385 5386 5387 5389 5390 5392 5395 5398 5401 5404 5407 5411 5415 5420 5426 5431 5436 5442 5448 5453 5459 5465 5473 5479 5486 5493 5500 5506 5513 5519 5525 5530 5536 5543